AMC-6 (GE-6)

Last updated on Jan. 17, 2021, 6:29 a.m. UTC

1 26580U 00067A   21016.79147774  .00000100  00000-0  00000-0 0  9991
2 26580   0.0515 287.4629 0002614  10.5569 324.3138  1.00273131 74093
UTC
Height (km)
Latitude
Longitude
Inclination
Orbital Period
UTC large
Height (km)
Speed (km/s)
/
Latitude / Longitude
Inclination (degrees)
Orbital Period (minutes)
Azimuth
Elevation
Range (km)
Doppler Factor
iOS Compass Heading
iOS Angle

Next 30 passes for location: Hong Kong

Rise time Rise Azimuth (degrees) Set time Set Azimuth (degrees) Duration Max altitude (degrees)

No matching passes for this satellites